Weather History for KBFM - February, 2013

Change the Weather History Date:

Tuesday, February 5, 2013

  Actual Average Record
Temperature  
Mean Temperature 59 °F -  
Max Temperature 66 °F 58 °F 71 °F (2008)
Min Temperature 52 °F 41 °F 26 °F (2009)
Degree Days  
Heating Degree Days 6    
Growing Degree Days 9 (Base 50)    
Moisture  
Dew Point 57 °F    
Average Humidity 93    
Maximum Humidity 100    
Minimum Humidity 81    
Precipitation  
Precipitation 0.41 in - - ()
Sea Level Pressure  
Sea Level Pressure 30.01 in    
Wind  
Wind Speed 3 mph (NE)    
Max Wind Speed 13 mph    
Max Gust Speed -    
Visibility 8 miles    
Events Fog , Rain    
Averages and records for this station are not official NWS values.
T = Trace of Precipitation, MM = Missing Value Source: NWS Daily Summary

Daily Weather History Graph

Daily Weather History Graph

Search for Another Location

Airport or City:

Trip Planner

Search our weather history database for the weather conditions in past years. The results will help you decide how hot, cold, wet, or windy it might be!

Date:

Astronomy

Feb. 05, 2013 Rise Set
Actual Time 6:40 AM CST 5:32 PM CST
Civil Twilight 6:15 AM CST 5:57 PM CST
Nautical Twilight 5:47 AM CST 6:25 PM CST
Astronomical Twilight 5:18 AM CST 6:54 PM CST
Moon 2:15 AM CST 12:57 PM CST
Length of Visible Light 11h 41m
Length of Day
10h 51m
Waning Crescent, 26% of the Moon is Illuminated
Feb 5
Waning Crescent
Feb 10
New
Feb 17
First Quarter
Feb 25
Full
Mar 4
Last Quarter

Hourly Weather History & Observations

Time (CST) Temp. Dew Point Humidity Pressure Visibility Wind Dir Wind Speed Gust Speed Precip Events Conditions
12:53 AM 55.0 °F 54.0 °F 96% 30.01 in 6.0 mi Calm Calm - 0.04 in Rain Light Rain
1:53 AM 55.9 °F 55.0 °F 97% 30.00 in 6.0 mi Calm Calm - 0.03 in Rain Light Rain
2:53 AM 55.0 °F 55.0 °F 100% 30.01 in 3.0 mi Calm Calm - 0.15 in Rain Heavy Rain
3:53 AM 55.0 °F 55.0 °F 100% 29.99 in 2.5 mi NE 4.6 mph - 0.13 in Rain Heavy Rain
4:00 AM 55.4 °F 55.4 °F 100% 29.99 in 4.0 mi ENE 3.5 mph - 0.02 in Rain Rain
4:53 AM 55.9 °F 55.0 °F 97% 29.99 in 6.0 mi East 9.2 mph - 0.04 in   Overcast
5:53 AM 57.0 °F 54.0 °F 89% 30.00 in 10.0 mi East 12.7 mph - 0.00 in Rain Light Rain
6:53 AM 57.0 °F 55.0 °F 93% 30.00 in 10.0 mi East 6.9 mph - N/A   Overcast
7:51 AM 57.2 °F 55.4 °F 94% 30.02 in 10.0 mi ENE 6.9 mph - 0.00 in Rain Light Rain
7:53 AM 57.0 °F 55.9 °F 96% 30.03 in 10.0 mi NE 8.1 mph - 0.00 in Rain Light Rain
8:53 AM 57.9 °F 57.0 °F 97% 30.03 in 10.0 mi NE 6.9 mph - 0.02 in   Overcast
9:53 AM 59.0 °F 57.0 °F 93% 30.04 in 10.0 mi Calm Calm - N/A   Overcast
10:05 AM 59.0 °F 57.2 °F 94% 30.04 in 10.0 mi Calm Calm - N/A   Overcast
10:53 AM 60.1 °F 57.0 °F 90% 30.04 in 10.0 mi Calm Calm - N/A   Overcast
11:53 AM 63.0 °F 59.0 °F 87% 30.03 in 10.0 mi NE 3.5 mph - N/A   Overcast
12:53 PM 64.0 °F 59.0 °F 84% 30.01 in 10.0 mi Calm Calm - N/A   Overcast
1:18 PM 64.4 °F 59.0 °F 83% 30.00 in 10.0 mi Calm Calm - N/A   Overcast
1:53 PM 64.9 °F 60.1 °F 84% 29.99 in 10.0 mi NNE 3.5 mph - N/A   Overcast
2:53 PM 66.0 °F 60.1 °F 81% 29.99 in 10.0 mi NE 3.5 mph - N/A   Overcast
3:10 PM 66.2 °F 60.8 °F 83% 29.98 in 10.0 mi NNE 4.6 mph - N/A   Mostly Cloudy
3:21 PM 64.4 °F 60.8 °F 88% 29.98 in 10.0 mi NE 4.6 mph - N/A   Mostly Cloudy
3:53 PM 64.9 °F 60.1 °F 84% 29.99 in 10.0 mi NNE 3.5 mph - N/A   Mostly Cloudy
4:53 PM 64.9 °F 60.1 °F 84% 29.99 in 10.0 mi Calm Calm - N/A   Mostly Cloudy
5:53 PM 59.0 °F 57.9 °F 96% 29.99 in 10.0 mi Calm Calm - N/A   Partly Cloudy
6:53 PM 57.0 °F 57.0 °F 100% 30.01 in 6.0 mi Calm Calm - N/A   Clear
7:27 PM 55.4 °F 55.4 °F 100% 30.02 in 6.0 mi Calm Calm - N/A Fog Shallow Fog
7:53 PM 55.0 °F 55.0 °F 100% 30.02 in 6.0 mi Calm Calm - N/A Fog Shallow Fog
8:53 PM 53.1 °F 53.1 °F 100% 30.04 in 6.0 mi Calm Calm - N/A Fog Patches of Fog
9:53 PM 53.1 °F 53.1 °F 100% 30.04 in 0.2 mi Calm Calm - N/A Fog Fog
10:53 PM 52.0 °F 52.0 °F 100% 30.05 in 0.2 mi NNW 3.5 mph - N/A Fog Fog
11:53 PM 52.0 °F 52.0 °F 100% 30.06 in 0.2 mi Calm Calm - N/A Fog Fog